Location: Newark
(51.3000°N, 178.2000°W)
Time: 05:00:33
(UTC+00:00)

Tianhe-1 - Visible Passes

Search period start: 22 June 2021 00:00
Search period end: 02 July 2021 00:00
Orbit: 375 x 386 km, 41.5° (Epoch: 21 June)

Date Brightness Start Highest point End Pass type
(mag) Time Alt. Az. Time Alt. Az. Time Alt. Az.
24 Jun 3.3 14:17:17 11° S 14:18:11 11° SSE 14:19:19 10° SE visible
25 Jun 3.1 14:51:38 10° SSW 14:53:24 14° S 14:55:11 10° SE visible
26 Jun 3.1 13:52:48 13° S 13:52:48 13° S 13:54:16 10° SE visible
27 Jun 3.0 14:26:45 12° SSW 14:27:55 14° S 14:29:39 10° SSE visible
28 Jun 3.5 13:28:46 11° SSE 13:28:46 11° SSE 13:28:56 10° SE visible
29 Jun 3.2 14:03:12 12° S 14:03:12 12° S 14:03:55 10° SSE visible
